Tracking 19224 objects as of 23-Jul-2018
HD Live streaming from Space Station
objects crossing your sky now

NAVSTAR 61 (USA 199)

Track NAVSTAR 61 (USA 199) now!
NAVSTAR 61 (USA 199) is classified as:


NORAD ID: 32384
Int'l Code: 2007-062A
Perigee: 20,172.9 km
Apogee: 20,205.5 km
Inclination: 56.4 °
Period: 718.0 minutes
Semi major axis: 26560 km
RCS: 2 m2 (large)
Launch date: December 20, 2007
Source: United States (US)
Launch site: AIR FORCE EASTERN TEST RANGE (AFETR)
PRN: 29

The GPS 2R-18 spacecraft is the fifth in a series of eight with enhanced features designed to rejuvenate the GPS constellation
aabbcc
Your satellite tracking list
Your tracking list is empty




NASA's NSSDC Master Catalog

Two Line Element Set (TLE):
1 32384U 07062A   18203.52576260 -.00000074 +00000-0 +00000-0 0  9994
2 32384 056.4004 028.0363 0006144 077.5688 105.3852 02.00565689077659
Source of the keplerian elements: AFSPC